Weather History for Hays, KS

Change the Weather History Date:

Wednesday, February 13, 2013

  Actual Average Record
Temperature  
Mean Temperature 38 °F -  
Max Temperature 57 °F 44 °F 71 °F (2011)
Min Temperature 19 °F 22 °F 10 °F (2007)
Degree Days  
Heating Degree Days 27    
Moisture  
Dew Point 18 °F    
Average Humidity 49    
Maximum Humidity 80    
Minimum Humidity 21    
Precipitation  
Precipitation 0.00 in - - ()
Sea Level Pressure  
Sea Level Pressure 29.91 in    
Wind  
Wind Speed 9 mph (WNW)    
Max Wind Speed 21 mph    
Max Gust Speed 28 mph    
Visibility 10 miles    
Events      
Averages and records for this station are not official NWS values.
T = Trace of Precipitation, MM = Missing Value Source: NWS Daily Summary

Daily Weather History Graph

Daily Weather History Graph

Search for Another Location

Airport:

Trip Planner

Search our weather history database for the weather conditions in past years. The results will help you decide how hot, cold, wet, or windy it might be!

Date:

Astronomy

Feb. 13, 2013 Rise Set
Actual Time 7:30 AM CST 6:12 PM CST
Civil Twilight 7:02 AM CST 6:40 PM CST
Nautical Twilight 6:31 AM CST 7:11 PM CST
Astronomical Twilight 6:00 AM CST 7:42 PM CST
Moon 9:03 AM CST (2/13) 10:14 PM CST (2/13)
Length of Visible Light 11h 37m
Length of Day
10h 42m
Waxing Crescent, 14% of the Moon is Illuminated
Feb 13
Waxing Crescent
Feb 17
First Quarter
Feb 25
Full
Mar 4
Last Quarter
Mar 11
New

Hourly Weather History & Observations

Time (CST) Temp. Windchill Dew Point Humidity Pressure Visibility Wind Dir Wind Speed Gust Speed Precip Events Conditions
12:15 AM 24.8 °F 16.9 °F 12.2 °F 59% 29.98 in 10.0 mi NW 6.9 mph - N/A   Clear
12:35 AM 26.6 °F 20.0 °F 12.2 °F 55% 29.97 in 10.0 mi WNW 5.8 mph - N/A   Clear
12:55 AM 24.8 °F 16.9 °F 12.2 °F 59% 29.97 in 10.0 mi WNW 6.9 mph - N/A   Clear
1:15 AM 23.0 °F 14.7 °F 12.2 °F 63% 29.96 in 10.0 mi WNW 6.9 mph - N/A   Clear
1:35 AM 21.2 °F 13.6 °F 14.0 °F 74% 29.96 in 10.0 mi West 5.8 mph - N/A   Clear
1:55 AM 21.2 °F 12.6 °F 12.2 °F 68% 29.96 in 10.0 mi West 6.9 mph - N/A   Clear
2:15 AM 19.4 °F 9.5 °F 12.2 °F 74% 29.97 in 10.0 mi West 8.1 mph - N/A   Clear
2:35 AM 19.4 °F 9.5 °F 14.0 °F 80% 29.97 in 10.0 mi West 8.1 mph - N/A   Partly Cloudy
2:55 AM 19.4 °F 10.4 °F 14.0 °F 80% 29.97 in 10.0 mi WNW 6.9 mph - N/A   Mostly Cloudy
3:15 AM 23.0 °F 17.0 °F 15.8 °F 74% 29.97 in 10.0 mi NW 4.6 mph - N/A   Overcast
3:35 AM 23.0 °F 18.4 °F 15.8 °F 74% 29.97 in 10.0 mi NW 3.5 mph - N/A   Scattered Clouds
3:55 AM 24.8 °F 19.1 °F 15.8 °F 69% 29.96 in 10.0 mi West 4.6 mph - N/A   Clear
4:15 AM 24.8 °F 19.1 °F 15.8 °F 69% 29.95 in 10.0 mi West 4.6 mph - N/A   Clear
4:35 AM 24.8 °F 16.9 °F 15.8 °F 69% 29.95 in 10.0 mi WNW 6.9 mph - N/A   Clear
4:55 AM 24.8 °F 16.1 °F 15.8 °F 69% 29.95 in 10.0 mi NW 8.1 mph - N/A   Clear
5:15 AM 24.8 °F 17.9 °F 17.6 °F 74% 29.95 in 10.0 mi WNW 5.8 mph - N/A   Clear
5:35 AM 24.8 °F 14.6 °F 17.6 °F 74% 29.95 in 10.0 mi WNW 10.4 mph - N/A   Clear
5:55 AM 26.6 °F 17.5 °F 17.6 °F 69% 29.94 in 10.0 mi WNW 9.2 mph - N/A   Clear
6:15 AM 24.8 °F 16.1 °F 17.6 °F 74% 29.94 in 10.0 mi WNW 8.1 mph - N/A   Clear
6:35 AM 24.8 °F 16.9 °F 15.8 °F 69% 29.94 in 10.0 mi West 6.9 mph - N/A   Clear
6:55 AM 24.8 °F 14.6 °F 17.6 °F 74% 29.94 in 10.0 mi WNW 10.4 mph - N/A   Clear
7:15 AM 24.8 °F 14.6 °F 17.6 °F 74% 29.94 in 10.0 mi WNW 10.4 mph - N/A   Clear
7:35 AM 24.8 °F 14.6 °F 15.8 °F 69% 29.94 in 10.0 mi WNW 10.4 mph - N/A   Clear
7:55 AM 26.6 °F 17.5 °F 17.6 °F 69% 29.95 in 10.0 mi WNW 9.2 mph - N/A   Clear
8:15 AM 26.6 °F 17.5 °F 17.6 °F 69% 29.95 in 10.0 mi WNW 9.2 mph - N/A   Clear
8:35 AM 28.4 °F 19.1 °F 19.4 °F 69% 29.95 in 10.0 mi WNW 10.4 mph - N/A   Clear
8:55 AM 32.0 °F 23.6 °F 19.4 °F 60% 29.95 in 10.0 mi WNW 10.4 mph - N/A   Clear
9:15 AM 35.6 °F 27.1 °F 19.4 °F 52% 29.95 in 10.0 mi WNW 12.7 mph - N/A   Clear
9:35 AM 37.4 °F 29.3 °F 19.4 °F 48% 29.95 in 10.0 mi WNW 12.7 mph - N/A   Clear
9:55 AM 37.4 °F 29.3 °F 19.4 °F 48% 29.95 in 10.0 mi WNW 12.7 mph - N/A   Clear
10:15 AM 39.2 °F 30.8 °F 19.4 °F 45% 29.95 in 10.0 mi WNW 15.0 mph - N/A   Clear
10:35 AM 42.8 °F 36.2 °F 21.2 °F 42% 29.94 in 10.0 mi WNW 12.7 mph - N/A   Clear
10:55 AM 44.6 °F 38.8 °F 21.2 °F 39% 29.94 in 10.0 mi WNW 11.5 mph 20.7 mph N/A   Clear
11:15 AM 46.4 °F 40.1 °F 19.4 °F 34% 29.94 in 10.0 mi NW 15.0 mph 21.9 mph N/A   Clear
11:35 AM 48.2 °F - 19.4 °F 32% 29.94 in 10.0 mi WNW 13.8 mph 20.7 mph N/A   Clear
11:55 AM 50.0 °F - 19.4 °F 30% 29.93 in 10.0 mi NW 17.3 mph 21.9 mph N/A   Clear
12:15 PM 51.8 °F - 19.4 °F 28% 29.92 in 10.0 mi West 16.1 mph 21.9 mph N/A   Clear
12:35 PM 51.8 °F - 19.4 °F 28% 29.91 in 10.0 mi WNW 16.1 mph 21.9 mph N/A   Clear
12:55 PM 53.6 °F - 19.4 °F 26% 29.89 in 10.0 mi WNW 20.7 mph 27.6 mph N/A   Clear
1:15 PM 55.4 °F - 17.6 °F 23% 29.88 in 10.0 mi WNW 17.3 mph 27.6 mph N/A   Clear
1:35 PM 55.4 °F - 17.6 °F 23% 29.87 in 10.0 mi West 16.1 mph 25.3 mph N/A   Clear
1:55 PM 55.4 °F - 17.6 °F 23% 29.86 in 10.0 mi WNW 16.1 mph 23.0 mph N/A   Clear
2:15 PM 55.4 °F - 17.6 °F 23% 29.86 in 10.0 mi West 20.7 mph 25.3 mph N/A   Clear
2:35 PM 57.2 °F - 17.6 °F 21% 29.85 in 10.0 mi WNW 20.7 mph 24.2 mph N/A   Clear
2:55 PM 57.2 °F - 19.4 °F 23% 29.85 in 10.0 mi WNW 17.3 mph 21.9 mph N/A   Clear
3:15 PM 57.2 °F - 17.6 °F 21% 29.84 in 10.0 mi WNW 15.0 mph - N/A   Clear
3:35 PM 57.2 °F - 19.4 °F 23% 29.84 in 10.0 mi NW 20.7 mph 25.3 mph N/A   Clear
3:55 PM 55.4 °F - 19.4 °F 25% 29.85 in 10.0 mi NW 13.8 mph 21.9 mph N/A   Clear
4:15 PM 55.4 °F - 19.4 °F 25% 29.85 in 10.0 mi WNW 16.1 mph 23.0 mph N/A   Clear
4:35 PM 55.4 °F - 19.4 °F 25% 29.85 in 10.0 mi WNW 12.7 mph 18.4 mph N/A   Clear
4:55 PM 53.6 °F - 17.6 °F 24% 29.85 in 10.0 mi WNW 13.8 mph - N/A   Clear
5:15 PM 53.6 °F - 19.4 °F 26% 29.85 in 10.0 mi WNW 16.1 mph - N/A   Clear
5:35 PM 53.6 °F - 19.4 °F 26% 29.85 in 10.0 mi WNW 10.4 mph - N/A   Clear
5:55 PM 53.6 °F - 19.4 °F 26% 29.85 in 10.0 mi West 6.9 mph - N/A   Clear
6:15 PM 48.2 °F - 17.6 °F 30% 29.85 in 10.0 mi West 6.9 mph - N/A   Clear
6:35 PM 46.4 °F 42.4 °F 17.6 °F 32% 29.86 in 10.0 mi WNW 8.1 mph - N/A   Clear
6:55 PM 44.6 °F 40.7 °F 17.6 °F 34% 29.86 in 10.0 mi West 6.9 mph - N/A   Clear
7:15 PM 41.0 °F 36.4 °F 17.6 °F 39% 29.86 in 10.0 mi West 6.9 mph - N/A   Clear
7:35 PM 39.2 °F 34.2 °F 17.6 °F 42% 29.86 in 10.0 mi WNW 6.9 mph - N/A   Clear
7:55 PM 39.2 °F 34.2 °F 17.6 °F 42% 29.87 in 10.0 mi WNW 6.9 mph - N/A   Clear
8:15 PM 37.4 °F 32.1 °F 17.6 °F 45% 29.88 in 10.0 mi WNW 6.9 mph - N/A   Mostly Cloudy
8:35 PM 37.4 °F 32.8 °F 19.4 °F 48% 29.88 in 10.0 mi WNW 5.8 mph - N/A   Mostly Cloudy
8:55 PM 37.4 °F 33.8 °F 19.4 °F 48% 29.87 in 10.0 mi West 4.6 mph - N/A   Overcast
9:15 PM 37.4 °F 32.8 °F 21.2 °F 52% 29.88 in 10.0 mi WNW 5.8 mph - N/A   Overcast
9:35 PM 39.2 °F 35.0 °F 21.2 °F 49% 29.88 in 10.0 mi NW 5.8 mph - N/A   Mostly Cloudy
9:55 PM 39.2 °F 35.0 °F 21.2 °F 49% 29.88 in 10.0 mi WNW 5.8 mph - N/A   Partly Cloudy
10:15 PM 37.4 °F 33.8 °F 19.4 °F 48% 29.88 in 10.0 mi West 4.6 mph - N/A   Clear
10:35 PM 35.6 °F 32.8 °F 21.2 °F 56% 29.89 in 10.0 mi WNW 3.5 mph - N/A   Clear
10:55 PM 33.8 °F - 21.2 °F 60% 29.89 in 10.0 mi Calm Calm - N/A   Clear
11:15 PM 30.2 °F 22.6 °F 19.4 °F 64% 29.90 in 10.0 mi West 8.1 mph - N/A   Clear
11:35 PM 30.2 °F 22.6 °F 19.4 °F 64% 29.91 in 10.0 mi West 8.1 mph - N/A   Clear
11:55 PM 30.2 °F 21.9 °F 21.2 °F 69% 29.91 in 10.0 mi WNW 9.2 mph - N/A   Clear